| time (UTC) | temp F | wind direction | speed MPH | gust MPH | rain 1hr in | rain 24hr in | rain mn in | humidity % | barometer mb |
| 20260510234428 | 63 | 141 | 0.0 | 0.0 | 0.00 | 0.00 | 0.00 | 39 | 1016.0 |
| 20260510233923 | 63 | 121 | 0.0 | 0.0 | 0.00 | 0.00 | 0.00 | 40 | 1015.8 |
| 20260510233421 | 64 | 137 | 0.0 | 0.0 | 0.00 | 0.00 | 0.00 | 39 | 1016.0 |
| 20260510232910 | 64 | 93 | 0.0 | 0.0 | 0.00 | 0.00 | 0.00 | 37 | 1015.9 |
| 20260510232407 | 64 | 111 | 0.0 | 0.0 | 0.00 | 0.00 | 0.00 | 37 | 1015.9 |
| 20260510231903 | 64 | 106 | 0.0 | 0.0 | 0.00 | 0.00 | 0.00 | 38 | 1016.0 |
| 20260510231401 | 64 | 99 | 0.0 | 0.0 | 0.00 | 0.00 | 0.00 | 42 | 1016.1 |
| 20260510230857 | 64 | 133 | 0.0 | 0.0 | 0.00 | 0.00 | 0.00 | 43 | 1016.0 |
| 20260510230352 | 64 | 89 | 0.0 | 0.0 | 0.00 | 0.00 | 0.00 | 40 | 1016.1 |
| 20260510225850 | 64 | 97 | 0.0 | 0.0 | 0.00 | 0.00 | 0.00 | 40 | 1015.9 |
| 20260510225345 | 64 | 144 | 0.0 | 0.0 | 0.00 | 0.00 | 0.00 | 40 | 1015.9 |
| 20260510224841 | 64 | 139 | 0.0 | 0.0 | 0.00 | 0.00 | 0.00 | 38 | 1015.8 |
| 20260510224338 | 64 | 118 | 0.0 | 0.0 | 0.00 | 0.00 | 0.00 | 39 | 1015.7 |
| 20260510223835 | 64 | 140 | 0.0 | 0.0 | 0.00 | 0.00 | 0.00 | 40 | 1015.9 |
| 20260510223332 | 65 | 118 | 0.0 | 0.0 | 0.00 | 0.00 | 0.00 | 42 | 1015.8 |
| 20260510222830 | 65 | 130 | 0.0 | 0.0 | 0.00 | 0.00 | 0.00 | 42 | 1015.7 |
| 20260510222326 | 65 | 62 | 0.0 | 0.0 | 0.00 | 0.00 | 0.00 | 39 | 1015.9 |
| 20260510221821 | 65 | 119 | 0.0 | 0.0 | 0.00 | 0.00 | 0.00 | 40 | 1015.7 |
| 20260510221318 | 65 | 114 | 0.0 | 0.0 | 0.00 | 0.00 | 0.00 | 42 | 1015.7 |
| 20260510220814 | 65 | 92 | 0.0 | 0.0 | 0.00 | 0.00 | 0.00 | 42 | 1015.9 |
| 20260510220310 | 65 | 187 | 0.0 | 0.0 | 0.00 | 0.00 | 0.00 | 46 | 1015.7 |
| 20260510215807 | 66 | 141 | 1.0 | 1.0 | 0.00 | 0.00 | 0.00 | 43 | 1015.8 |
| 20260510215306 | 66 | 7 | 0.0 | 0.0 | 0.00 | 0.00 | 0.00 | 43 | 1015.8 |
| 20260510214802 | 66 | 131 | 0.0 | 0.0 | 0.00 | 0.00 | 0.00 | 48 | 1016.0 |
| 20260510214258 | 66 | 1 | 0.0 | 0.0 | 0.00 | 0.00 | 0.00 | 43 | 1015.8 |
| 20260510213755 | 66 | 106 | 0.0 | 1.0 | 0.00 | 0.00 | 0.00 | 40 | 1015.8 |
| 20260510213252 | 66 | 93 | 0.0 | 0.0 | 0.00 | 0.00 | 0.00 | 40 | 1015.9 |
| 20260510212748 | 67 | 124 | 0.0 | 1.0 | 0.00 | 0.00 | 0.00 | 41 | 1015.8 |
| 20260510212246 | 67 | 69 | 0.0 | 1.0 | 0.00 | 0.00 | 0.00 | 40 | 1015.8 |
| 20260510211742 | 68 | 133 | 0.0 | 0.0 | 0.00 | 0.00 | 0.00 | 43 | 1015.6 |
| 20260510211238 | 68 | 200 | 0.0 | 0.0 | 0.00 | 0.00 | 0.00 | 37 | 1015.6 |
| 20260510210734 | 68 | 203 | 0.0 | 0.0 | 0.00 | 0.00 | 0.00 | 43 | 1015.7 |
| 20260510210229 | 67 | 116 | 0.0 | 0.0 | 0.00 | 0.00 | 0.00 | 43 | 1015.7 |
| 20260510205729 | 67 | 93 | 0.0 | 1.0 | 0.00 | 0.00 | 0.00 | 41 | 1015.5 |
| 20260510205224 | 69 | 25 | 2.0 | 2.0 | 0.00 | 0.00 | 0.00 | 38 | 1015.7 |
| 20260510204720 | 69 | 105 | 0.0 | 0.0 | 0.00 | 0.00 | 0.00 | 37 | 1015.6 |
| 20260510204217 | 69 | 76 | 0.0 | 1.0 | 0.00 | 0.00 | 0.00 | 42 | 1015.6 |
| 20260510203714 | 69 | 251 | 1.0 | 2.0 | 0.00 | 0.00 | 0.00 | 43 | 1015.7 |
| 20260510203212 | 69 | 94 | 0.0 | 0.0 | 0.00 | 0.00 | 0.00 | 43 | 1015.4 |
| 20260510202706 | 70 | 218 | 0.0 | 0.0 | 0.00 | 0.00 | 0.00 | 44 | 1015.4 |
| 20260510202201 | 70 | 71 | 0.0 | 0.0 | 0.00 | 0.00 | 0.00 | 41 | 1015.4 |
| 20260510201659 | 69 | 165 | 0.0 | 0.0 | 0.00 | 0.00 | 0.00 | 47 | 1015.5 |
| 20260510201155 | 70 | 204 | 0.0 | 0.0 | 0.00 | 0.00 | 0.00 | 47 | 1015.3 |
| 20260510200651 | 71 | 249 | 3.0 | 5.0 | 0.00 | 0.00 | 0.00 | 43 | 1015.4 |
| 20260510200149 | 71 | 158 | 0.0 | 0.0 | 0.00 | 0.00 | 0.00 | 40 | 1015.2 |
| 20260510195646 | 72 | 165 | 0.0 | 1.0 | 0.00 | 0.00 | 0.00 | 46 | 1015.1 |
| 20260510195143 | 72 | 169 | 0.0 | 0.0 | 0.00 | 0.00 | 0.00 | 37 | 1015.0 |
| 20260510194642 | 71 | 90 | 0.0 | 0.0 | 0.00 | 0.00 | 0.00 | 41 | 1015.2 |
| 20260510194139 | 71 | 78 | 0.0 | 0.0 | 0.00 | 0.00 | 0.00 | 34 | 1015.2 |
| 20260510193634 | 72 | 359 | 1.0 | 2.0 | 0.00 | 0.00 | 0.00 | 38 | 1015.0 |
| 20260510193130 | 71 | 189 | 0.0 | 0.0 | 0.00 | 0.00 | 0.00 | 40 | 1015.3 |
| 20260510192625 | 71 | 68 | 0.0 | 0.0 | 0.00 | 0.00 | 0.00 | 37 | 1015.3 |
| 20260510192121 | 72 | 15 | 0.0 | 0.0 | 0.00 | 0.00 | 0.00 | 36 | 1015.5 |
| 20260510191617 | 71 | 161 | 0.0 | 0.0 | 0.00 | 0.00 | 0.00 | 45 | 1015.2 |
| 20260510191114 | 71 | 234 | 2.0 | 2.0 | 0.00 | 0.00 | 0.00 | 37 | 1015.2 |
| 20260510190611 | 71 | 163 | 0.0 | 0.0 | 0.00 | 0.00 | 0.00 | 34 | 1015.4 |
| 20260510190109 | 70 | 225 | 1.0 | 2.0 | 0.00 | 0.00 | 0.00 | 48 | 1015.5 |
| 20260510185605 | 68 | 248 | 3.0 | 3.0 | 0.00 | 0.00 | 0.00 | 43 | 1015.5 |
| 20260510185103 | 69 | 199 | 1.0 | 1.0 | 0.00 | 0.00 | 0.00 | 40 | 1015.5 |
| 20260510184600 | 71 | 256 | 2.0 | 3.0 | 0.00 | 0.00 | 0.00 | 39 | 1015.5 |
| 20260510184055 | 70 | 40 | 1.0 | 1.0 | 0.00 | 0.00 | 0.00 | 39 | 1015.6 |
| 20260510183551 | 70 | 120 | 0.0 | 0.0 | 0.00 | 0.00 | 0.00 | 50 | 1015.5 |
| 20260510183046 | 69 | 64 | 1.0 | 1.0 | 0.00 | 0.00 | 0.00 | 41 | 1015.9 |
| 20260510182543 | 69 | 37 | 1.0 | 1.0 | 0.00 | 0.00 | 0.00 | 39 | 1015.8 |
| 20260510182033 | 69 | 20 | 1.0 | 1.0 | 0.00 | 0.00 | 0.00 | 38 | 1015.5 |
| 20260510181531 | 69 | 124 | 0.0 | 0.0 | 0.00 | 0.00 | 0.00 | 42 | 1015.7 |
| 20260510181027 | 70 | 74 | 0.0 | 0.0 | 0.00 | 0.00 | 0.00 | 38 | 1015.6 |
| 20260510180524 | 70 | 211 | 3.0 | 5.0 | 0.00 | 0.00 | 0.00 | 37 | 1015.7 |
| 20260510180021 | 71 | 4 | 0.0 | 0.0 | 0.00 | 0.00 | 0.00 | 43 | 1015.8 |
| 20260510175516 | 71 | 169 | 0.0 | 1.0 | 0.00 | 0.00 | 0.00 | 38 | 1015.9 |
| 20260510175012 | 71 | 99 | 0.0 | 0.0 | 0.00 | 0.00 | 0.00 | 39 | 1015.6 |
| 20260510174511 | 71 | 164 | 0.0 | 0.0 | 0.00 | 0.00 | 0.00 | 55 | 1015.6 |
| 20260510174007 | 69 | 175 | 0.0 | 0.0 | 0.00 | 0.00 | 0.00 | 38 | 1015.7 |
| 20260510173503 | 72 | 32 | 1.0 | 1.0 | 0.00 | 0.00 | 0.00 | 37 | 1015.8 |
| 20260510173000 | 71 | 116 | 0.0 | 0.0 | 0.00 | 0.00 | 0.00 | 41 | 1015.7 |
| 20260510172455 | 72 | 236 | 2.0 | 3.0 | 0.00 | 0.00 | 0.00 | 39 | 1015.8 |
| 20260510171952 | 71 | 104 | 0.0 | 0.0 | 0.00 | 0.00 | 0.00 | 40 | 1015.8 |
| 20260510171449 | 70 | 66 | 0.0 | 0.0 | 0.00 | 0.00 | 0.00 | 44 | 1015.7 |
| 20260510170945 | 71 | 131 | 0.0 | 0.0 | 0.00 | 0.00 | 0.00 | 47 | 1015.5 |
| 20260510170442 | 70 | 151 | 0.0 | 0.0 | 0.00 | 0.00 | 0.00 | 41 | 1015.5 |
| 20260510165938 | 69 | 66 | 0.0 | 0.0 | 0.00 | 0.00 | 0.00 | 41 | 1015.5 |
| 20260510165434 | 70 | 151 | 0.0 | 1.0 | 0.00 | 0.00 | 0.00 | 40 | 1015.7 |
| 20260510164931 | 70 | 137 | 0.0 | 0.0 | 0.00 | 0.00 | 0.00 | 44 | 1015.7 |
| 20260510164428 | 69 | 235 | 2.0 | 2.0 | 0.00 | 0.00 | 0.00 | 39 | 1015.8 |
| 20260510163923 | 69 | 42 | 0.0 | 1.0 | 0.00 | 0.00 | 0.00 | 43 | 1015.9 |
| 20260510163419 | 69 | 83 | 1.0 | 1.0 | 0.00 | 0.00 | 0.00 | 39 | 1015.6 |
| 20260510162914 | 68 | 130 | 2.0 | 2.0 | 0.00 | 0.00 | 0.00 | 44 | 1015.5 |
| 20260510162411 | 68 | 57 | 1.0 | 1.0 | 0.00 | 0.00 | 0.00 | 42 | 1015.2 |
| 20260510161907 | 68 | 106 | 1.0 | 1.0 | 0.00 | 0.00 | 0.00 | 47 | 1015.1 |
| 20260510161403 | 68 | 132 | 1.0 | 2.0 | 0.00 | 0.00 | 0.00 | 43 | 1014.9 |
| 20260510160900 | 68 | 123 | 0.0 | 0.0 | 0.00 | 0.00 | 0.00 | 48 | 1015.1 |
| 20260510160357 | 68 | 79 | 1.0 | 2.0 | 0.00 | 0.00 | 0.00 | 45 | 1015.1 |
| 20260510155856 | 68 | 61 | 2.0 | 3.0 | 0.00 | 0.00 | 0.00 | 45 | 1014.9 |
| 20260510155353 | 68 | 326 | 1.0 | 2.0 | 0.00 | 0.00 | 0.00 | 46 | 1015.0 |
| 20260510154849 | 68 | 52 | 1.0 | 1.0 | 0.00 | 0.00 | 0.00 | 44 | 1014.9 |
| 20260510154346 | 68 | 90 | 1.0 | 1.0 | 0.00 | 0.00 | 0.00 | 43 | 1015.1 |
| 20260510153839 | 68 | 44 | 2.0 | 2.0 | 0.00 | 0.00 | 0.00 | 42 | 1015.4 |
| 20260510153336 | 68 | 110 | 3.0 | 3.0 | 0.00 | 0.00 | 0.00 | 43 | 1015.2 |
| 20260510152832 | 68 | 88 | 1.0 | 2.0 | 0.00 | 0.00 | 0.00 | 47 | 1015.3 |
| 20260510152330 | 67 | 197 | 0.0 | 0.0 | 0.00 | 0.00 | 0.00 | 49 | 1014.9 |
| 20260510151826 | 67 | 88 | 1.0 | 1.0 | 0.00 | 0.00 | 0.00 | 48 | 1014.8 |
| 20260510151324 | 68 | 120 | 0.0 | 0.0 | 0.00 | 0.00 | 0.00 | 55 | 1014.8 |
| 20260510150820 | 68 | 85 | 0.0 | 0.0 | 0.00 | 0.00 | 0.00 | 48 | 1014.9 |
| 20260510150315 | 67 | 123 | 0.0 | 0.0 | 0.00 | 0.00 | 0.00 | 52 | 1014.9 |
| 20260510145812 | 66 | 86 | 0.0 | 0.0 | 0.00 | 0.00 | 0.00 | 45 | 1014.9 |
| 20260510145308 | 66 | 161 | 0.0 | 0.0 | 0.00 | 0.00 | 0.00 | 47 | 1014.7 |
| 20260510144805 | 67 | 354 | 0.0 | 0.0 | 0.00 | 0.00 | 0.00 | 46 | 1014.9 |
| 20260510144302 | 66 | 351 | 1.0 | 2.0 | 0.00 | 0.00 | 0.00 | 44 | 1014.7 |
| 20260510143801 | 66 | 82 | 0.0 | 0.0 | 0.00 | 0.00 | 0.00 | 47 | 1014.9 |
| 20260510143257 | 66 | 58 | 0.0 | 0.0 | 0.00 | 0.00 | 0.00 | 45 | 1014.5 |
| 20260510142754 | 66 | 3 | 0.0 | 0.0 | 0.00 | 0.00 | 0.00 | 47 | 1014.5 |
| 20260510142251 | 65 | 166 | 1.0 | 1.0 | 0.00 | 0.00 | 0.00 | 46 | 1014.4 |
| 20260510141748 | 66 | 53 | 1.0 | 1.0 | 0.00 | 0.00 | 0.00 | 45 | 1014.6 |
| 20260510141246 | 65 | 106 | 0.0 | 0.0 | 0.00 | 0.00 | 0.00 | 47 | 1014.5 |
| 20260510140743 | 65 | 121 | 1.0 | 2.0 | 0.00 | 0.00 | 0.00 | 44 | 1014.4 |
| 20260510140238 | 64 | 82 | 0.0 | 1.0 | 0.00 | 0.00 | 0.00 | 47 | 1014.3 |
| 20260510135732 | 65 | 68 | 1.0 | 1.0 | 0.00 | 0.00 | 0.00 | 46 | 1014.3 |
| 20260510135228 | 64 | 115 | 0.0 | 0.0 | 0.00 | 0.00 | 0.00 | 43 | 1014.2 |
| 20260510134726 | 63 | 88 | 2.0 | 2.0 | 0.00 | 0.00 | 0.00 | 43 | 1014.1 |
| 20260510134223 | 62 | 93 | 1.0 | 1.0 | 0.00 | 0.00 | 0.00 | 45 | 1014.2 |
| 20260510133718 | 61 | 106 | 1.0 | 2.0 | 0.00 | 0.00 | 0.00 | 44 | 1014.2 |
| 20260510133214 | 61 | 63 | 1.0 | 1.0 | 0.00 | 0.00 | 0.00 | 46 | 1014.1 |
| 20260510132710 | 61 | 118 | 1.0 | 1.0 | 0.00 | 0.00 | 0.00 | 52 | 1014.1 |
| 20260510132208 | 61 | 141 | 0.0 | 1.0 | 0.00 | 0.00 | 0.00 | 55 | 1014.3 |
| 20260510131705 | 61 | 131 | 0.0 | 0.0 | 0.00 | 0.00 | 0.00 | 58 | 1014.2 |
| 20260510131204 | 60 | 124 | 1.0 | 2.0 | 0.00 | 0.00 | 0.00 | 51 | 1013.9 |
| 20260510130659 | 59 | 108 | 0.0 | 0.0 | 0.00 | 0.00 | 0.00 | 61 | 1014.1 |
| 20260510130156 | 59 | 124 | 0.0 | 0.0 | 0.00 | 0.00 | 0.00 | 62 | 1013.7 |
| 20260510125652 | 58 | 116 | 0.0 | 0.0 | 0.00 | 0.00 | 0.00 | 63 | 1013.5 |
| 20260510125149 | 57 | 106 | 0.0 | 1.0 | 0.00 | 0.00 | 0.00 | 67 | 1013.7 |
| 20260510124646 | 57 | 118 | 0.0 | 1.0 | 0.00 | 0.00 | 0.00 | 67 | 1013.4 |
| 20260510124143 | 56 | 72 | 1.0 | 1.0 | 0.00 | 0.00 | 0.00 | 67 | 1013.5 |
| 20260510123638 | 56 | 90 | 0.0 | 0.0 | 0.00 | 0.00 | 0.00 | 69 | 1013.3 |
| 20260510123134 | 56 | 126 | 0.0 | 0.0 | 0.00 | 0.00 | 0.00 | 71 | 1013.2 |
| 20260510122631 | 56 | 103 | 0.0 | 1.0 | 0.00 | 0.00 | 0.00 | 70 | 1012.8 |
| 20260510122127 | 55 | 83 | 1.0 | 1.0 | 0.00 | 0.00 | 0.00 | 72 | 1013.0 |
| 20260510121624 | 55 | 90 | 1.0 | 1.0 | 0.00 | 0.00 | 0.00 | 73 | 1013.1 |
| 20260510121121 | 55 | 95 | 1.0 | 1.0 | 0.00 | 0.00 | 0.00 | 72 | 1012.9 |
| 20260510120619 | 55 | 80 | 0.0 | 0.0 | 0.00 | 0.00 | 0.00 | 73 | 1012.9 |
| 20260510120114 | 54 | 93 | 0.0 | 0.0 | 0.00 | 0.00 | 0.00 | 75 | 1012.3 |
| 20260510115611 | 54 | 117 | 0.0 | 0.0 | 0.00 | 0.00 | 0.00 | 75 | 1012.4 |
| 20260510115108 | 54 | 106 | 0.0 | 0.0 | 0.00 | 0.00 | 0.00 | 77 | 1012.2 |
| 20260510114604 | 54 | 137 | 0.0 | 0.0 | 0.00 | 0.00 | 0.00 | 77 | 1012.1 |
| 20260510114100 | 53 | 135 | 0.0 | 0.0 | 0.00 | 0.00 | 0.00 | 76 | 1012.3 |
| 20260510113555 | 53 | 137 | 0.0 | 0.0 | 0.00 | 0.00 | 0.00 | 76 | 1012.1 |
| 20260510113053 | 53 | 113 | 0.0 | 0.0 | 0.00 | 0.00 | 0.00 | 77 | 1012.2 |
| 20260510112549 | 52 | 139 | 0.0 | 0.0 | 0.00 | 0.00 | 0.00 | 77 | 1011.9 |
| 20260510112046 | 52 | 118 | 0.0 | 0.0 | 0.00 | 0.00 | 0.00 | 78 | 1012.0 |
| 20260510111543 | 51 | 126 | 0.0 | 0.0 | 0.00 | 0.00 | 0.00 | 79 | 1012.0 |
| 20260510111039 | 51 | 119 | 0.0 | 0.0 | 0.00 | 0.00 | 0.00 | 82 | 1011.8 |
| 20260510110535 | 52 | 144 | 0.0 | 0.0 | 0.00 | 0.00 | 0.00 | 85 | 1011.7 |
| 20260510110031 | 53 | 152 | 0.0 | 0.0 | 0.00 | 0.00 | 0.00 | 82 | 1011.7 |
| 20260510105526 | 52 | 142 | 0.0 | 0.0 | 0.00 | 0.00 | 0.00 | 76 | 1011.1 |
| 20260510105021 | 52 | 137 | 0.0 | 0.0 | 0.00 | 0.00 | 0.00 | 77 | 1011.2 |
| 20260510104518 | 52 | 138 | 0.0 | 0.0 | 0.00 | 0.00 | 0.00 | 76 | 1011.0 |
| 20260510104015 | 53 | 136 | 0.0 | 0.0 | 0.00 | 0.00 | 0.00 | 77 | 1011.0 |
| 20260510103512 | 53 | 143 | 0.0 | 0.0 | 0.00 | 0.00 | 0.00 | 73 | 1010.9 |
| 20260510103008 | 53 | 140 | 0.0 | 0.0 | 0.00 | 0.00 | 0.00 | 73 | 1010.9 |
| 20260510102504 | 53 | 128 | 0.0 | 0.0 | 0.00 | 0.00 | 0.00 | 73 | 1010.8 |
| 20260510102001 | 53 | 135 | 0.0 | 0.0 | 0.00 | 0.00 | 0.00 | 74 | 1010.7 |
| 20260510101458 | 53 | 137 | 0.0 | 0.0 | 0.00 | 0.00 | 0.00 | 72 | 1010.7 |
| 20260510100956 | 54 | 133 | 0.0 | 0.0 | 0.00 | 0.00 | 0.00 | 72 | 1010.7 |
| 20260510100452 | 54 | 135 | 0.0 | 0.0 | 0.00 | 0.00 | 0.00 | 71 | 1010.6 |
| 20260510095949 | 54 | 133 | 0.0 | 0.0 | 0.00 | 0.00 | 0.00 | 72 | 1010.7 |
| 20260510095445 | 54 | 135 | 0.0 | 0.0 | 0.00 | 0.00 | 0.00 | 72 | 1010.7 |
| 20260510094944 | 54 | 142 | 0.0 | 0.0 | 0.00 | 0.00 | 0.00 | 72 | 1010.7 |
| 20260510094439 | 54 | 136 | 0.0 | 0.0 | 0.00 | 0.00 | 0.00 | 74 | 1010.6 |
| 20260510093935 | 55 | 143 | 0.0 | 0.0 | 0.00 | 0.00 | 0.00 | 74 | 1010.8 |
| 20260510093430 | 55 | 147 | 0.0 | 0.0 | 0.00 | 0.00 | 0.00 | 68 | 1010.8 |
| 20260510092927 | 55 | 143 | 0.0 | 0.0 | 0.00 | 0.00 | 0.00 | 68 | 1010.8 |
| 20260510092425 | 56 | 135 | 0.0 | 0.0 | 0.00 | 0.00 | 0.00 | 66 | 1010.7 |
| 20260510091924 | 56 | 137 | 0.0 | 0.0 | 0.00 | 0.00 | 0.00 | 65 | 1010.5 |
| 20260510091422 | 56 | 130 | 0.0 | 0.0 | 0.00 | 0.00 | 0.00 | 65 | 1010.5 |
| 20260510090918 | 57 | 133 | 0.0 | 0.0 | 0.00 | 0.00 | 0.00 | 64 | 1010.5 |
| 20260510090415 | 57 | 118 | 0.0 | 0.0 | 0.00 | 0.00 | 0.00 | 64 | 1010.4 |
| 20260510085911 | 57 | 118 | 0.0 | 0.0 | 0.00 | 0.00 | 0.00 | 64 | 1010.4 |
| 20260510085406 | 57 | 134 | 0.0 | 0.0 | 0.00 | 0.00 | 0.00 | 63 | 1010.2 |
| 20260510084901 | 57 | 130 | 0.0 | 0.0 | 0.00 | 0.00 | 0.00 | 63 | 1010.1 |
| 20260510084359 | 58 | 136 | 0.0 | 0.0 | 0.00 | 0.00 | 0.00 | 62 | 1010.1 |
| 20260510083855 | 58 | 113 | 0.0 | 0.0 | 0.00 | 0.00 | 0.00 | 62 | 1010.2 |
| 20260510083352 | 58 | 123 | 0.0 | 0.0 | 0.00 | 0.00 | 0.00 | 63 | 1010.1 |
| 20260510082847 | 58 | 140 | 0.0 | 0.0 | 0.00 | 0.00 | 0.00 | 62 | 1010.2 |
| 20260510082345 | 58 | 130 | 0.0 | 0.0 | 0.00 | 0.00 | 0.00 | 62 | 1010.2 |
| 20260510081844 | 58 | 133 | 0.0 | 0.0 | 0.00 | 0.00 | 0.00 | 61 | 1010.2 |
| 20260510081340 | 58 | 121 | 1.0 | 1.0 | 0.00 | 0.00 | 0.00 | 62 | 1009.9 |
| 20260510080837 | 58 | 82 | 1.0 | 1.0 | 0.00 | 0.00 | 0.00 | 62 | 1009.8 |
| 20260510080331 | 58 | 106 | 1.0 | 1.0 | 0.00 | 0.00 | 0.00 | 61 | 1009.6 |
| 20260510075828 | 59 | 124 | 0.0 | 1.0 | 0.00 | 0.00 | 0.00 | 61 | 1009.4 |
| 20260510075326 | 59 | 61 | 2.0 | 2.0 | 0.00 | 0.00 | 0.00 | 63 | 1009.4 |
| 20260510074822 | 59 | 118 | 0.0 | 1.0 | 0.00 | 0.00 | 0.00 | 61 | 1009.3 |
| 20260510074320 | 59 | 68 | 1.0 | 1.0 | 0.00 | 0.00 | 0.00 | 63 | 1009.5 |
| 20260510073815 | 59 | 133 | 0.0 | 0.0 | 0.00 | 0.00 | 0.00 | 64 | 1009.2 |
| 20260510073312 | 59 | 127 | 0.0 | 1.0 | 0.00 | 0.00 | 0.00 | 62 | 1009.2 |
| 20260510072808 | 59 | 111 | 0.0 | 1.0 | 0.00 | 0.00 | 0.00 | 64 | 1009.3 |
| 20260510072306 | 59 | 99 | 0.0 | 1.0 | 0.00 | 0.00 | 0.00 | 64 | 1009.0 |
| 20260510071801 | 59 | 59 | 1.0 | 1.0 | 0.00 | 0.00 | 0.00 | 65 | 1009.0 |
| 20260510071257 | 59 | 80 | 2.0 | 2.0 | 0.00 | 0.00 | 0.00 | 66 | 1008.9 |
| 20260510070757 | 60 | 104 | 0.0 | 1.0 | 0.00 | 0.00 | 0.00 | 68 | 1008.7 |
| 20260510070253 | 60 | 110 | 1.0 | 1.0 | 0.00 | 0.00 | 0.00 | 68 | 1008.7 |
| 20260510065753 | 60 | 124 | 0.0 | 1.0 | 0.00 | 0.00 | 0.00 | 68 | 1008.7 |
| 20260510065250 | 60 | 105 | 0.0 | 1.0 | 0.00 | 0.00 | 0.00 | 71 | 1008.8 |
| 20260510064746 | 61 | 88 | 0.0 | 0.0 | 0.00 | 0.00 | 0.00 | 74 | 1008.7 |
| 20260510064244 | 61 | 121 | 0.0 | 0.0 | 0.00 | 0.00 | 0.00 | 74 | 1008.4 |
| 20260510063740 | 61 | 87 | 1.0 | 1.0 | 0.00 | 0.00 | 0.00 | 76 | 1008.7 |
| 20260510063236 | 61 | 94 | 0.0 | 0.0 | 0.00 | 0.00 | 0.00 | 77 | 1008.7 |
| 20260510062733 | 59 | 80 | 1.0 | 1.0 | 0.00 | 0.00 | 0.00 | 83 | 1008.3 |
| 20260510062229 | 60 | 142 | 0.0 | 0.0 | 0.00 | 0.00 | 0.00 | 92 | 1008.6 |
| 20260510061725 | 60 | 138 | 0.0 | 0.0 | 0.00 | 0.00 | 0.00 | 92 | 1008.6 |
| 20260510061222 | 60 | 140 | 0.0 | 0.0 | 0.00 | 0.00 | 0.00 | 92 | 1008.4 |
| 20260510060718 | 60 | 152 | 0.0 | 0.0 | 0.00 | 0.00 | 0.00 | 92 | 1008.4 |
| 20260510060215 | 60 | 153 | 0.0 | 0.0 | 0.00 | 0.00 | 0.00 | 92 | 1008.4 |
| 20260510055712 | 60 | 155 | 0.0 | 0.0 | 0.00 | 0.00 | 0.00 | 91 | 1008.4 |
| 20260510055210 | 60 | 130 | 0.0 | 0.0 | 0.00 | 0.00 | 0.00 | 90 | 1008.3 |
| 20260510054705 | 60 | 145 | 0.0 | 0.0 | 0.00 | 0.00 | 0.00 | 89 | 1007.8 |
| 20260510054201 | 60 | 147 | 0.0 | 0.0 | 0.00 | 0.00 | 0.00 | 89 | 1008.0 |
| 20260510053700 | 60 | 147 | 0.0 | 0.0 | 0.00 | 0.00 | 0.00 | 89 | 1008.2 |
| 20260510053157 | 61 | 147 | 0.0 | 0.0 | 0.00 | 0.00 | 0.00 | 89 | 1008.3 |
| 20260510052652 | 61 | 145 | 0.0 | 0.0 | 0.00 | 0.00 | 0.00 | 88 | 1008.1 |
| 20260510052149 | 61 | 145 | 0.0 | 0.0 | 0.00 | 0.00 | 0.00 | 88 | 1007.9 |
| 20260510051645 | 61 | 143 | 0.0 | 0.0 | 0.00 | 0.00 | 0.00 | 88 | 1008.2 |
| 20260510051141 | 61 | 141 | 0.0 | 0.0 | 0.00 | 0.00 | 0.00 | 88 | 1008.1 |
| 20260510050639 | 62 | 145 | 0.0 | 0.0 | 0.00 | 0.00 | 0.00 | 89 | 1007.9 |
| 20260510050136 | 62 | 145 | 0.0 | 0.0 | 0.00 | 0.00 | 0.00 | 88 | 1008.0 |
| 20260510045632 | 62 | 173 | 0.0 | 0.0 | 0.00 | 0.00 | 0.00 | 89 | 1008.0 |
| 20260510045129 | 62 | 145 | 0.0 | 0.0 | 0.00 | 0.00 | 0.00 | 88 | 1008.1 |
| 20260510044625 | 62 | 143 | 0.0 | 0.0 | 0.00 | 0.00 | 0.00 | 87 | 1008.0 |
| 20260510044123 | 62 | 179 | 0.0 | 0.0 | 0.00 | 0.00 | 0.00 | 88 | 1008.1 |
| 20260510043618 | 62 | 154 | 0.0 | 0.0 | 0.00 | 0.00 | 0.00 | 86 | 1008.2 |
| 20260510043115 | 62 | 154 | 0.0 | 0.0 | 0.00 | 0.00 | 0.00 | 85 | 1007.9 |
| 20260510042613 | 63 | 154 | 0.0 | 0.0 | 0.00 | 0.00 | 0.00 | 85 | 1007.7 |
| 20260510042108 | 63 | 175 | 1.0 | 1.0 | 0.00 | 0.00 | 0.00 | 85 | 1008.0 |
| 20260510041606 | 63 | 143 | 0.0 | 0.0 | 0.00 | 0.00 | 0.00 | 84 | 1007.9 |
| 20260510041103 | 63 | 234 | 2.0 | 2.0 | 0.00 | 0.00 | 0.00 | 82 | 1008.0 |
| 20260510040600 | 63 | 239 | 3.0 | 3.0 | 0.00 | 0.00 | 0.00 | 82 | 1007.9 |
| 20260510040056 | 64 | 197 | 1.0 | 1.0 | 0.00 | 0.08 | 0.08 | 82 | 1007.8 |
| 20260510035552 | 64 | 235 | 2.0 | 2.0 | 0.00 | 0.08 | 0.08 | 81 | 1007.9 |
| 20260510035052 | 64 | 238 | 2.0 | 2.0 | 0.00 | 0.08 | 0.08 | 81 | 1007.7 |
| 20260510034550 | 64 | 185 | 0.0 | 1.0 | 0.00 | 0.08 | 0.08 | 81 | 1007.7 |
| 20260510034047 | 64 | 187 | 1.0 | 1.0 | 0.00 | 0.08 | 0.08 | 80 | 1007.9 |
| 20260510033543 | 64 | 73 | 1.0 | 1.0 | 0.00 | 0.08 | 0.08 | 80 | 1008.0 |
| 20260510033041 | 65 | 251 | 2.0 | 2.0 | 0.00 | 0.08 | 0.08 | 78 | 1007.3 |
| 20260510032537 | 64 | 252 | 3.0 | 3.0 | 0.00 | 0.08 | 0.08 | 79 | 1007.8 |
| 20260510032033 | 64 | 250 | 3.0 | 3.0 | 0.00 | 0.08 | 0.08 | 79 | 1007.4 |
| 20260510031528 | 64 | 242 | 2.0 | 2.0 | 0.00 | 0.08 | 0.08 | 79 | 1007.5 |
| 20260510031024 | 64 | 242 | 2.0 | 2.0 | 0.00 | 0.08 | 0.08 | 79 | 1007.4 |
| 20260510030520 | 64 | 170 | 0.0 | 1.0 | 0.00 | 0.08 | 0.08 | 80 | 1007.4 |
| 20260510030017 | 63 | 242 | 2.0 | 2.0 | 0.00 | 0.08 | 0.08 | 80 | 1007.5 |
| 20260510025514 | 63 | 213 | 1.0 | 1.0 | 0.00 | 0.08 | 0.08 | 82 | 1007.3 |
| 20260510025012 | 62 | 207 | 0.0 | 0.0 | 0.00 | 0.08 | 0.08 | 83 | 1007.1 |
| 20260510024508 | 62 | 192 | 0.0 | 0.0 | 0.00 | 0.08 | 0.08 | 84 | 1007.3 |
| 20260510024004 | 62 | 159 | 0.0 | 0.0 | 0.00 | 0.08 | 0.08 | 85 | 1007.1 |
| 20260510023500 | 62 | 156 | 0.0 | 0.0 | 0.00 | 0.08 | 0.08 | 84 | 1007.2 |
| 20260510022957 | 62 | 158 | 0.0 | 0.0 | 0.00 | 0.08 | 0.08 | 84 | 1007.3 |
| 20260510022457 | 63 | 157 | 0.0 | 0.0 | 0.00 | 0.08 | 0.08 | 83 | 1007.1 |
| 20260510021956 | 63 | 196 | 1.0 | 1.0 | 0.00 | 0.08 | 0.08 | 82 | 1007.2 |
| 20260510021454 | 64 | 168 | 0.0 | 1.0 | 0.00 | 0.08 | 0.08 | 81 | 1007.0 |
| 20260510020951 | 64 | 189 | 0.0 | 1.0 | 0.00 | 0.08 | 0.08 | 80 | 1006.8 |
| 20260510020451 | 63 | 249 | 2.0 | 2.0 | 0.00 | 0.08 | 0.08 | 81 | 1007.0 |
| 20260510015946 | 63 | 192 | 1.0 | 1.0 | 0.00 | 0.08 | 0.08 | 82 | 1006.7 |
| 20260510015443 | 63 | 162 | 0.0 | 0.0 | 0.00 | 0.08 | 0.08 | 81 | 1006.5 |
| 20260510014938 | 63 | 176 | 0.0 | 0.0 | 0.00 | 0.08 | 0.08 | 82 | 1006.7 |
| 20260510014436 | 64 | 186 | 1.0 | 1.0 | 0.00 | 0.08 | 0.08 | 81 | 1006.5 |
| 20260510013932 | 63 | 186 | 1.0 | 1.0 | 0.00 | 0.08 | 0.08 | 82 | 1006.7 |
| 20260510013427 | 63 | 162 | 0.0 | 0.0 | 0.00 | 0.08 | 0.08 | 81 | 1006.4 |
| 20260510012923 | 64 | 190 | 0.0 | 1.0 | 0.00 | 0.08 | 0.08 | 81 | 1006.1 |
| 20260510012418 | 64 | 154 | 0.0 | 0.0 | 0.00 | 0.08 | 0.08 | 79 | 1006.1 |
| 20260510011913 | 65 | 148 | 0.0 | 0.0 | 0.00 | 0.08 | 0.08 | 78 | 1006.1 |
| 20260510011408 | 65 | 147 | 0.0 | 0.0 | 0.00 | 0.08 | 0.08 | 77 | 1006.2 |
| 20260510010904 | 66 | 214 | 1.0 | 1.0 | 0.00 | 0.08 | 0.08 | 75 | 1006.1 |
| 20260510010402 | 66 | 241 | 2.0 | 2.0 | 0.00 | 0.08 | 0.08 | 74 | 1006.0 |
| 20260510005858 | 65 | 218 | 1.0 | 1.0 | 0.00 | 0.08 | 0.08 | 76 | 1006.0 |
| 20260510005354 | 66 | 186 | 1.0 | 1.0 | 0.00 | 0.08 | 0.08 | 76 | 1006.0 |
| 20260510004852 | 66 | 193 | 1.0 | 1.0 | 0.00 | 0.08 | 0.08 | 75 | 1005.8 |
| 20260510004349 | 67 | 235 | 2.0 | 2.0 | 0.00 | 0.08 | 0.08 | 72 | 1005.9 |
| 20260510003847 | 68 | 236 | 2.0 | 2.0 | 0.00 | 0.08 | 0.08 | 72 | 1005.7 |
| 20260510003344 | 68 | 248 | 2.0 | 2.0 | 0.00 | 0.08 | 0.08 | 70 | 1005.6 |
| 20260510002842 | 68 | 252 | 3.0 | 3.0 | 0.00 | 0.08 | 0.08 | 69 | 1005.6 |
| 20260510002340 | 68 | 243 | 2.0 | 2.0 | 0.00 | 0.08 | 0.08 | 68 | 1005.7 |
| 20260510001837 | 69 | 254 | 2.0 | 2.0 | 0.00 | 0.08 | 0.08 | 67 | 1005.6 |
| 20260510001335 | 69 | 245 | 2.0 | 3.0 | 0.00 | 0.08 | 0.08 | 67 | 1005.6 |
| 20260510000831 | 69 | 249 | 3.0 | 3.0 | 0.00 | 0.08 | 0.08 | 66 | 1005.5 |
| 20260510000328 | 69 | 244 | 2.0 | 2.0 | 0.00 | 0.08 | 0.08 | 66 | 1005.4 |
| 20260509235825 | 69 | 171 | 0.0 | 1.0 | 0.00 | 0.08 | 0.08 | 67 | 1005.3 |
| 20260509235321 | 70 | 235 | 3.0 | 3.0 | 0.00 | 0.08 | 0.08 | 65 | 1005.3 |
| 20260509234817 | 70 | 264 | 3.0 | 3.0 | 0.00 | 0.08 | 0.08 | 65 | 1005.5 |